TimeCDT,TemperatureF,Dew PointF,Humidity,Sea Level PressureIn,VisibilityMPH,Wind Direction,Wind SpeedMPH,Gust SpeedMPH,PrecipitationIn,Events,Conditions,WindDirDegrees,DateUTC
12:15 AM,41.7,36.1,81,30.16,10.0,Calm,Calm,-,N/A,,Clear,0,2013-10-13 05:15:00
12:35 AM,40.1,36.3,86,30.17,10.0,Calm,Calm,-,N/A,,Clear,0,2013-10-13 05:35:00
12:55 AM,41.0,37.2,86,30.17,10.0,Calm,Calm,-,N/A,,Clear,0,2013-10-13 05:55:00
1:15 AM,39.2,36.7,91,30.19,10.0,Calm,Calm,-,N/A,,Clear,0,2013-10-13 06:15:00
1:35 AM,39.7,36.5,88,30.20,10.0,Calm,Calm,-,N/A,,Clear,0,2013-10-13 06:35:00
1:55 AM,39.6,36.5,89,30.21,10.0,Calm,Calm,-,N/A,,Clear,0,2013-10-13 06:55:00
2:15 AM,38.7,36.0,90,30.21,10.0,Calm,Calm,-,N/A,,Clear,0,2013-10-13 07:15:00
2:35 AM,39.2,35.6,87,30.21,10.0,Calm,Calm,-,N/A,,Clear,0,2013-10-13 07:35:00
2:55 AM,38.5,36.7,93,30.21,10.0,Calm,Calm,-,N/A,,Clear,0,2013-10-13 07:55:00
3:15 AM,38.3,36.5,93,30.22,10.0,Calm,Calm,-,N/A,,Clear,0,2013-10-13 08:15:00
3:35 AM,37.2,35.4,93,30.23,10.0,Calm,Calm,-,N/A,,Clear,0,2013-10-13 08:35:00
3:55 AM,38.5,35.4,89,30.23,10.0,Calm,Calm,-,N/A,,Clear,0,2013-10-13 08:55:00
4:15 AM,37.0,34.9,92,30.25,10.0,Calm,Calm,-,N/A,,Clear,0,2013-10-13 09:15:00
4:35 AM,38.7,36.3,91,30.26,10.0,Calm,Calm,-,N/A,,Clear,0,2013-10-13 09:35:00
4:55 AM,38.8,36.1,90,30.26,10.0,Calm,Calm,-,N/A,,Clear,0,2013-10-13 09:55:00
5:15 AM,37.4,34.2,88,30.27,10.0,Calm,Calm,-,N/A,,Clear,0,2013-10-13 10:15:00
5:35 AM,36.5,34.2,91,30.28,10.0,Calm,Calm,-,N/A,,Clear,0,2013-10-13 10:35:00
5:55 AM,35.6,33.8,93,30.29,10.0,Calm,Calm,-,N/A,,Clear,0,2013-10-13 10:55:00
6:15 AM,35.2,33.6,94,30.29,10.0,Calm,Calm,-,N/A,,Clear,0,2013-10-13 11:15:00
6:35 AM,35.6,33.6,92,30.30,10.0,Calm,Calm,-,N/A,,Clear,0,2013-10-13 11:35:00
6:55 AM,35.8,34.5,95,30.30,10.0,Calm,Calm,-,N/A,,Clear,0,2013-10-13 11:55:00
7:15 AM,34.3,32.5,93,30.31,10.0,Calm,Calm,-,N/A,,Clear,0,2013-10-13 12:15:00
7:35 AM,35.8,34.0,93,30.32,10.0,Calm,Calm,-,N/A,,Clear,0,2013-10-13 12:35:00
7:55 AM,37.6,36.5,96,30.33,10.0,Calm,Calm,-,N/A,,Clear,0,2013-10-13 12:55:00
8:15 AM,40.3,38.7,94,30.34,10.0,Calm,Calm,-,N/A,,Clear,0,2013-10-13 13:15:00
8:35 AM,44.4,40.3,85,30.35,10.0,Calm,Calm,-,N/A,,Clear,0,2013-10-13 13:35:00
8:55 AM,46.8,40.8,80,30.35,10.0,West,3.5,-,N/A,,Clear,260,2013-10-13 13:55:00
9:15 AM,49.1,41.0,74,30.36,10.0,WNW,8.1,-,N/A,,Clear,300,2013-10-13 14:15:00
9:35 AM,50.2,41.4,72,30.36,10.0,WNW,6.9,-,N/A,,Clear,300,2013-10-13 14:35:00
9:55 AM,52.0,41.9,69,30.37,10.0,NNW,9.2,-,N/A,,Clear,330,2013-10-13 14:55:00
10:15 AM,53.1,41.5,65,30.37,10.0,NW,9.2,-,N/A,,Clear,320,2013-10-13 15:15:00
10:55 AM,54.3,41.5,62,30.37,10.0,WNW,8.1,-,N/A,,Clear,300,2013-10-13 15:55:00
11:15 AM,54.1,40.5,60,30.38,10.0,WNW,9.2,16.1,N/A,,Scattered Clouds,300,2013-10-13 16:15:00
11:35 AM,55.6,39.7,55,30.38,10.0,West,5.8,-,N/A,,Mostly Cloudy,280,2013-10-13 16:35:00
11:55 AM,55.9,40.5,56,30.38,10.0,NW,12.7,-,N/A,,Scattered Clouds,310,2013-10-13 16:55:00
12:15 PM,56.5,39.0,52,30.38,10.0,WNW,8.1,-,N/A,,Clear,300,2013-10-13 17:15:00
12:35 PM,57.2,38.8,50,30.37,10.0,NW,8.1,-,N/A,,Clear,320,2013-10-13 17:35:00
12:55 PM,57.7,37.8,47,30.37,10.0,WNW,10.4,16.1,N/A,,Clear,300,2013-10-13 17:55:00
1:15 PM,57.9,38.7,49,30.37,10.0,NW,11.5,-,N/A,,Clear,310,2013-10-13 18:15:00
1:35 PM,58.1,37.8,47,30.36,10.0,WNW,8.1,-,N/A,,Clear,290,2013-10-13 18:35:00
1:55 PM,58.3,37.0,45,30.36,10.0,NW,6.9,16.1,N/A,,Clear,310,2013-10-13 18:55:00
2:15 PM,58.5,36.0,43,30.36,10.0,NW,9.2,16.1,N/A,,Clear,320,2013-10-13 19:15:00
2:35 PM,59.0,35.2,41,30.35,10.0,WNW,9.2,-,N/A,,Clear,290,2013-10-13 19:35:00
2:55 PM,59.4,35.8,41,30.35,10.0,NW,8.1,-,N/A,,Clear,320,2013-10-13 19:55:00
3:15 PM,59.7,36.5,42,30.35,10.0,NW,4.6,-,N/A,,Clear,320,2013-10-13 20:15:00
3:35 PM,59.5,36.3,42,30.35,10.0,WNW,3.5,-,N/A,,Clear,300,2013-10-13 20:35:00
3:55 PM,59.5,35.2,40,30.35,10.0,NNW,6.9,-,N/A,,Clear,340,2013-10-13 20:55:00
4:15 PM,59.2,35.1,40,30.35,10.0,North,6.9,-,N/A,,Clear,350,2013-10-13 21:15:00
4:35 PM,58.6,34.3,40,30.34,10.0,North,6.9,-,N/A,,Clear,350,2013-10-13 21:35:00
4:55 PM,58.3,34.7,41,30.35,10.0,NNW,5.8,-,N/A,,Clear,340,2013-10-13 21:55:00
5:15 PM,57.6,35.1,43,30.35,10.0,WNW,5.8,-,N/A,,Clear,290,2013-10-13 22:15:00
5:35 PM,56.8,35.4,45,30.35,10.0,NW,4.6,-,N/A,,Clear,320,2013-10-13 22:35:00
5:55 PM,55.2,35.4,47,30.36,10.0,NNW,3.5,-,N/A,,Clear,340,2013-10-13 22:55:00
6:15 PM,54.5,34.5,47,30.36,10.0,NNW,3.5,-,N/A,,Clear,330,2013-10-13 23:15:00
6:35 PM,52.5,35.8,53,30.37,10.0,Calm,Calm,-,N/A,,Clear,0,2013-10-13 23:35:00
6:55 PM,47.3,36.1,65,30.38,10.0,Calm,Calm,-,N/A,,Clear,0,2013-10-13 23:55:00
7:15 PM,44.2,36.0,73,30.38,10.0,Calm,Calm,-,N/A,,Clear,0,2013-10-14 00:15:00
7:35 PM,45.1,36.9,73,30.38,10.0,Calm,Calm,-,N/A,,Clear,0,2013-10-14 00:35:00
7:55 PM,42.6,36.5,79,30.38,10.0,Calm,Calm,-,N/A,,Clear,0,2013-10-14 00:55:00
8:15 PM,42.4,36.5,79,30.38,10.0,Calm,Calm,-,N/A,,Clear,0,2013-10-14 01:15:00
8:35 PM,41.0,36.5,84,30.38,10.0,Calm,Calm,-,N/A,,Clear,0,2013-10-14 01:35:00
8:55 PM,39.9,35.6,85,30.39,10.0,Calm,Calm,-,N/A,,Clear,0,2013-10-14 01:55:00
9:15 PM,39.0,35.4,87,30.39,10.0,Calm,Calm,-,N/A,,Clear,0,2013-10-14 02:15:00
9:35 PM,39.2,35.1,85,30.39,10.0,Calm,Calm,-,N/A,,Clear,0,2013-10-14 02:35:00
9:55 PM,38.3,35.1,88,30.39,10.0,Calm,Calm,-,N/A,,Clear,0,2013-10-14 02:55:00
10:15 PM,38.3,36.0,91,30.39,10.0,Calm,Calm,-,N/A,,Clear,0,2013-10-14 03:15:00
10:35 PM,36.9,34.3,91,30.39,10.0,Calm,Calm,-,N/A,,Clear,0,2013-10-14 03:35:00
10:55 PM,37.0,34.7,91,30.39,10.0,Calm,Calm,-,N/A,,Clear,0,2013-10-14 03:55:00
11:15 PM,37.0,34.5,91,30.40,10.0,Calm,Calm,-,N/A,,Clear,0,2013-10-14 04:15:00
11:35 PM,36.1,34.2,93,30.40,10.0,Calm,Calm,-,N/A,,Clear,0,2013-10-14 04:35:00
11:55 PM,36.7,34.0,90,30.40,10.0,Calm,Calm,-,N/A,,Clear,0,2013-10-14 04:55:00